Location: Plzen
(49.7500°N, 13.3667°E)
Time: 11:51:30
(UTC+01:00)

ISS - Visible Passes

Search period start: 20 January 2018 00:00
Search period end: 30 January 2018 00:00
Orbit: 402 x 407 km, 51.6° (Epoch: 20 January)

Date Brightness Start Highest point End Pass type
(mag) Time Alt. Az. Time Alt. Az. Time Alt. Az.
26 Jan -2.0 18:54:29 10° SSW 18:56:12 21° S 18:56:12 21° S visible
27 Jan -1.8 18:02:57 10° S 18:05:02 16° SE 18:06:11 14° ESE visible
27 Jan -1.2 19:37:49 10° WSW 19:38:51 19° WSW 19:38:51 19° WSW visible
28 Jan -3.4 18:45:35 10° SW 18:48:43 45° SSE 18:48:45 45° SSE visible
29 Jan -2.6 17:53:32 10° SSW 17:56:25 29° SSE 17:58:36 15° E visible
29 Jan -2.0 19:29:25 10° WSW 19:31:15 31° W 19:31:15 31° W visible
